When you browse on this site, cookies collect data to enhance your experience and personalize the content and advertising you see.
Visit our Privacy Policy to learn more. By continuing to use the site, you agree to this use of cookies and data.
  • Em Portugal
  • Lista de países
  • Para 7 dias
  • Temperatura da água
  • Mapa do tempo
  • Widgets de tempo
  • user-avatar
    Iniciar Sessão

    Previsão horária em Veliko Tarnovo

    Hoje, 1 Abril, Quarta-feira

    Tempo Temperatura Precipitação Vento Pressão Humidade
    00:00 0°C° 0.2 mm 3 m/s 741 mmHg 72%
    01:00 0°C° 0.2 mm 3 m/s 741 mmHg 74%
    02:00 -1°C° 0.2 mm 3 m/s 741 mmHg 77%
    03:00 -1°C° 0.5 mm 3 m/s 741 mmHg 82%
    04:00 -2°C° 0.5 mm 3 m/s 741 mmHg 86%
    05:00 -2°C° 0.5 mm 3 m/s 741 mmHg 90%
    06:00 -2°C° 0.3 mm 3 m/s 741 mmHg 89%
    07:00 -2°C° 0.3 mm 3 m/s 741 mmHg 88%
    08:00 -2°C° 0.3 mm 3 m/s 741 mmHg 87%
    09:00 -1°C° 0.2 mm 3 m/s 741 mmHg 87%
    10:00 0°C° 0.2 mm 3 m/s 741 mmHg 87%
    11:00 +1°C° 0.2 mm 3 m/s 741 mmHg 87%
    12:00 +1°C° 0.1 mm 3 m/s 741 mmHg 85%
    13:00 +2°C° 0.1 mm 3 m/s 741 mmHg 83%
    14:00 +3°C° 0.1 mm 3 m/s 741 mmHg 81%
    15:00 +3°C° 0.1 mm 4 m/s 740 mmHg 81%
    16:00 +3°C° 0.1 mm 4 m/s 740 mmHg 81%
    17:00 +3°C° 0.1 mm 4 m/s 739 mmHg 81%
    18:00 +1°C° 0 mm 4 m/s 739 mmHg 84%
    19:00 +2°C° 0 mm 3 m/s 739 mmHg 88%
    20:00 +2°C° 0 mm 2 m/s 739 mmHg 91%
    21:00 +2°C° 0 mm 2 m/s 739 mmHg 90%
    22:00 +1°C° 0 mm 2 m/s 739 mmHg 90%
    23:00 +1°C° 0 mm 2 m/s 739 mmHg 89%

    Amanhã, 2 Abril, Quinta-feira

    Tempo Temperatura Precipitação Vento Pressão Humidade
    00:00 +1°C° 0 mm 2 m/s 739 mmHg 88%
    01:00 +2°C° 0 mm 1 m/s 739 mmHg 87%
    02:00 +2°C° 0 mm 1 m/s 739 mmHg 87%
    03:00 +2°C° 0.1 mm 1 m/s 739 mmHg 87%
    04:00 +1°C° 0.1 mm 1 m/s 739 mmHg 87%
    05:00 +1°C° 0.1 mm 1 m/s 739 mmHg 87%
    06:00 +2°C° 0.2 mm 1 m/s 739 mmHg 85%
    07:00 +2°C° 0.2 mm 1 m/s 739 mmHg 83%
    08:00 +2°C° 0.2 mm 1 m/s 739 mmHg 81%
    09:00 +4°C° 0.1 mm 1 m/s 739 mmHg 76%
    10:00 +4°C° 0.1 mm 2 m/s 739 mmHg 72%
    11:00 +5°C° 0.1 mm 2 m/s 739 mmHg 67%
    12:00 +6°C° 0 mm 2 m/s 738 mmHg 65%
    13:00 +7°C° 0 mm 2 m/s 738 mmHg 62%
    14:00 +7°C° 0 mm 2 m/s 738 mmHg 60%
    15:00 +7°C° 0 mm 2 m/s 738 mmHg 61%
    16:00 +7°C° 0 mm 2 m/s 738 mmHg 63%
    17:00 +8°C° 0 mm 1 m/s 737 mmHg 65%
    18:00 +7°C° 0 mm 1 m/s 737 mmHg 69%
    19:00 +6°C° 0 mm 1 m/s 737 mmHg 74%
    20:00 +4°C° 0 mm 1 m/s 738 mmHg 78%
    21:00 +4°C° 0 mm 1 m/s 738 mmHg 78%
    22:00 +4°C° 0 mm 1 m/s 738 mmHg 79%
    23:00 +3°C° 0 mm 1 m/s 738 mmHg 80%

    Depois de amanhã, 3 Abril, Sexta-feira

    Tempo Temperatura Precipitação Vento Pressão Humidade
    00:00 +3°C° 0 mm 1 m/s 738 mmHg 80%
    01:00 +3°C° 0 mm 1 m/s 738 mmHg 81%
    02:00 +1°C° 0 mm 0 m/s 738 mmHg 82%
    03:00 +1°C° 0 mm 0 m/s 738 mmHg 82%
    04:00 +1°C° 0 mm 0 m/s 737 mmHg 82%
    05:00 +1°C° 0 mm 0 m/s 737 mmHg 83%
    06:00 +2°C° 0 mm 0 m/s 738 mmHg 79%
    07:00 +4°C° 0 mm 0 m/s 738 mmHg 75%
    08:00 +5°C° 0 mm 0 m/s 738 mmHg 71%
    09:00 +8°C° 0 mm 1 m/s 738 mmHg 67%
    10:00 +10°C° 0 mm 1 m/s 738 mmHg 62%
    11:00 +12°C° 0 mm 1 m/s 738 mmHg 58%
    12:00 +13°C° 0 mm 1 m/s 738 mmHg 57%
    13:00 +13°C° 0 mm 1 m/s 738 mmHg 56%
    14:00 +14°C° 0 mm 1 m/s 738 mmHg 55%
    15:00 +14°C° 0 mm 1 m/s 737 mmHg 57%
    16:00 +13°C° 0 mm 1 m/s 737 mmHg 59%
    17:00 +13°C° 0 mm 1 m/s 737 mmHg 61%
    18:00 +12°C° 0 mm 1 m/s 737 mmHg 66%
    19:00 +10°C° 0 mm 1 m/s 738 mmHg 71%
    20:00 +9°C° 0 mm 1 m/s 738 mmHg 76%
    21:00 +8°C° 0 mm 1 m/s 738 mmHg 78%
    22:00 +7°C° 0 mm 1 m/s 739 mmHg 80%
    23:00 +7°C° 0 mm 1 m/s 739 mmHg 82%

    4 Abril, Sábado

    Tempo Temperatura Precipitação Vento Pressão Humidade
    00:00 +7°C° 0 mm 1 m/s 739 mmHg 83%
    01:00 +6°C° 0 mm 1 m/s 739 mmHg 84%
    02:00 +6°C° 0 mm 1 m/s 739 mmHg 84%
    03:00 +5°C° 0 mm 0 m/s 739 mmHg 85%
    04:00 +5°C° 0 mm 0 m/s 739 mmHg 85%
    05:00 +4°C° 0 mm 0 m/s 739 mmHg 86%
    06:00 +6°C° 0 mm 0 m/s 740 mmHg 83%
    07:00 +7°C° 0 mm 0 m/s 740 mmHg 79%
    08:00 +8°C° 0 mm 0 m/s 741 mmHg 76%
    09:00 +9°C° 0 mm 0 m/s 741 mmHg 71%
    10:00 +12°C° 0 mm 1 m/s 741 mmHg 67%
    11:00 +13°C° 0 mm 1 m/s 741 mmHg 63%
    12:00 +13°C° 0.1 mm 1 m/s 741 mmHg 62%
    13:00 +14°C° 0.1 mm 1 m/s 741 mmHg 61%
    14:00 +14°C° 0.1 mm 2 m/s 741 mmHg 61%
    15:00 +14°C° 0.1 mm 2 m/s 741 mmHg 62%
    16:00 +14°C° 0.1 mm 1 m/s 741 mmHg 64%
    17:00 +14°C° 0.1 mm 1 m/s 741 mmHg 66%
    18:00 +13°C° 0.1 mm 1 m/s 742 mmHg 69%
    19:00 +12°C° 0.1 mm 1 m/s 742 mmHg 73%
    20:00 +11°C° 0.1 mm 1 m/s 743 mmHg 76%
    21:00 +10°C° 0 mm 1 m/s 743 mmHg 79%
    22:00 +9°C° 0 mm 1 m/s 743 mmHg 81%
    23:00 +8°C° 0 mm 1 m/s 744 mmHg 83%

    5 Abril, Domingo

    Tempo Temperatura Precipitação Vento Pressão Humidade
    00:00 +8°C° 0 mm 1 m/s 744 mmHg 83%
    01:00 +8°C° 0 mm 1 m/s 744 mmHg 84%
    02:00 +7°C° 0 mm 1 m/s 744 mmHg 84%
    03:00 +7°C° 0 mm 1 m/s 744 mmHg 82%
    04:00 +6°C° 0 mm 1 m/s 744 mmHg 79%
    05:00 +6°C° 0 mm 1 m/s 745 mmHg 77%
    06:00 +7°C° 0 mm 1 m/s 745 mmHg 72%
    07:00 +7°C° 0 mm 2 m/s 745 mmHg 67%
    08:00 +8°C° 0 mm 2 m/s 745 mmHg 62%
    09:00 +10°C° 0 mm 3 m/s 746 mmHg 58%
    10:00 +10°C° 0 mm 5 m/s 746 mmHg 53%
    11:00 +13°C° 0 mm 6 m/s 746 mmHg 49%
    12:00 +12°C° 0 mm 7 m/s 745 mmHg 49%
    13:00 +13°C° 0 mm 8 m/s 745 mmHg 48%
    14:00 +13°C° 0 mm 8 m/s 745 mmHg 48%
    15:00 +13°C° 0 mm 8 m/s 745 mmHg 51%
    16:00 +12°C° 0 mm 7 m/s 744 mmHg 54%
    17:00 +11°C° 0 mm 7 m/s 744 mmHg 58%
    18:00 +10°C° 0 mm 6 m/s 744 mmHg 60%
    19:00 +8°C° 0 mm 4 m/s 745 mmHg 63%
    20:00 +8°C° 0 mm 3 m/s 745 mmHg 66%
    21:00 +7°C° 0 mm 3 m/s 745 mmHg 66%
    22:00 +5°C° 0 mm 3 m/s 745 mmHg 66%
    23:00 +5°C° 0 mm 3 m/s 746 mmHg 66%

    6 Abril, Segunda-feira

    Tempo Temperatura Precipitação Vento Pressão Humidade
    00:00 +4°C° 0 mm 3 m/s 746 mmHg 68%
    01:00 +4°C° 0 mm 3 m/s 746 mmHg 71%
    02:00 +4°C° 0 mm 3 m/s 746 mmHg 73%
    03:00 +3°C° 0 mm 3 m/s 746 mmHg 73%
    04:00 +3°C° 0 mm 3 m/s 746 mmHg 72%
    05:00 +3°C° 0 mm 3 m/s 747 mmHg 72%
    06:00 +3°C° 0 mm 4 m/s 747 mmHg 70%
    07:00 +2°C° 0 mm 5 m/s 747 mmHg 67%
    08:00 +3°C° 0 mm 6 m/s 748 mmHg 65%
    09:00 +4°C° 0 mm 6 m/s 748 mmHg 60%
    10:00 +7°C° 0 mm 6 m/s 748 mmHg 56%
    11:00 +8°C° 0 mm 7 m/s 749 mmHg 51%
    12:00 +9°C° 0 mm 7 m/s 749 mmHg 49%
    13:00 +9°C° 0 mm 7 m/s 749 mmHg 47%
    14:00 +10°C° 0 mm 7 m/s 749 mmHg 45%
    15:00 +9°C° 0 mm 7 m/s 749 mmHg 47%
    16:00 +8°C° 0 mm 7 m/s 749 mmHg 50%
    17:00 +6°C° 0 mm 7 m/s 749 mmHg 52%
    18:00 +5°C° 0 mm 6 m/s 749 mmHg 55%
    19:00 +3°C° 0 mm 5 m/s 749 mmHg 58%
    20:00 +1°C° 0 mm 4 m/s 749 mmHg 61%
    21:00 +2°C° 0 mm 3 m/s 750 mmHg 63%
    22:00 +2°C° 0 mm 2 m/s 750 mmHg 66%
    23:00 +1°C° 0 mm 2 m/s 750 mmHg 69%
    Mostrar mais